Location: Bartshausen
(51.8454°N, 9.8167°E)
Time: 00:07:03
(UTC+00:00)

Cosmos 2333 - Pass Details

Date: 08 November 2025
Orbit: 827 x 865 km, 70.9° (Epoch: 04 December)

Event Time Altitude Azimuth Distance (km) Brightness Sun altitude
Exits shadow 03:21:24 74° 12° (NNE) 899 4.2 -28.8°
Drops below altitude 10° 03:26:40 10° 30° (NNE) 2,514 7.1 -28.0°
Sets 03:29:09 0° 31° (NNE) 3,457 7.9 -27.7°
